TimeCDT,TemperatureF,Dew PointF,Humidity,Sea Level PressureIn,VisibilityMPH,Wind Direction,Wind SpeedMPH,Gust SpeedMPH,PrecipitationIn,Events,Conditions,WindDirDegrees,DateUTC
12:56 AM,82.9,72.0,69,29.99,10.0,South,4.6,-,N/A,,Mostly Cloudy,170,2013-08-05 05:56:00
1:56 AM,82.0,73.0,74,29.99,10.0,South,6.9,-,N/A,,Scattered Clouds,190,2013-08-05 06:56:00
2:56 AM,82.0,73.9,76,29.99,10.0,South,5.8,-,N/A,,Mostly Cloudy,180,2013-08-05 07:56:00
3:56 AM,81.0,73.9,79,29.99,10.0,SSW,3.5,-,N/A,,Mostly Cloudy,200,2013-08-05 08:56:00
4:56 AM,80.1,73.9,81,29.99,10.0,SSW,4.6,-,N/A,,Mostly Cloudy,200,2013-08-05 09:56:00
5:56 AM,79.0,73.9,84,29.99,10.0,SSW,3.5,-,N/A,,Scattered Clouds,200,2013-08-05 10:56:00
6:56 AM,78.1,73.9,87,30.00,10.0,South,5.8,-,N/A,,Scattered Clouds,180,2013-08-05 11:56:00
7:56 AM,81.0,75.0,82,30.01,10.0,SSW,5.8,-,N/A,,Scattered Clouds,210,2013-08-05 12:56:00
8:56 AM,84.9,73.9,69,30.01,10.0,SW,10.4,-,N/A,,Scattered Clouds,230,2013-08-05 13:56:00
9:56 AM,88.0,73.0,61,30.01,10.0,West,9.2,-,N/A,,Partly Cloudy,260,2013-08-05 14:56:00
10:56 AM,91.0,72.0,53,30.01,10.0,SW,6.9,-,N/A,,Partly Cloudy,230,2013-08-05 15:56:00
11:56 AM,93.9,72.0,49,29.99,10.0,South,9.2,-,N/A,,Clear,190,2013-08-05 16:56:00
12:56 PM,96.1,70.0,43,29.97,10.0,WSW,6.9,-,N/A,,Partly Cloudy,250,2013-08-05 17:56:00
1:56 PM,97.0,68.0,39,29.95,10.0,SW,9.2,-,N/A,,Partly Cloudy,220,2013-08-05 18:56:00
2:56 PM,99.0,66.0,34,29.93,10.0,SSW,9.2,-,N/A,,Partly Cloudy,200,2013-08-05 19:56:00
3:56 PM,100.0,66.0,33,29.90,10.0,Variable,3.5,-,N/A,,Partly Cloudy,0,2013-08-05 20:56:00
4:56 PM,99.0,68.0,36,29.89,10.0,South,11.5,-,N/A,,Partly Cloudy,170,2013-08-05 21:56:00
5:56 PM,99.0,66.9,35,29.87,10.0,South,6.9,-,N/A,,Partly Cloudy,180,2013-08-05 22:56:00
6:56 PM,98.1,66.0,35,29.87,10.0,South,6.9,-,N/A,,Partly Cloudy,180,2013-08-05 23:56:00
7:56 PM,93.0,66.9,42,29.87,10.0,SSE,4.6,-,N/A,,Partly Cloudy,160,2013-08-06 00:56:00
8:56 PM,90.0,70.0,52,29.88,10.0,SSE,8.1,-,N/A,,Partly Cloudy,150,2013-08-06 01:56:00
9:56 PM,87.1,71.1,59,29.90,10.0,SSE,8.1,-,N/A,,Partly Cloudy,160,2013-08-06 02:56:00
10:56 PM,86.0,71.1,61,29.91,10.0,SSE,6.9,-,N/A,,Clear,160,2013-08-06 03:56:00
11:56 PM,84.9,71.1,63,29.91,10.0,South,9.2,-,N/A,,Clear,190,2013-08-06 04:56:00